GFSNE_con_lsi_336.txt.gz
Lid_Strength_Index
5 5 5 5 5 4 4 4 6 10 11 11 10 8 7 7 8 6 6 7 5 5 5 5 6 5 4 5 5 4 4 4 5 5 5 5 5 4
5 5 5 5 4 4 5 5 5 7 11 9 9 8 8 8 8 8 8 8 7 7 7 7 8 7 6 6 5 5 5 6 6 5 5 5 5 5
5 5 5 4 5 5 5 6 7 7 11 10 9 9 9 9 9 8 9 9 9 9 9 9 9 7 8 7 7 7 7 6 6 6 6 6 6 6
5 5 5 5 5 5 6 6 7 8 10 11 10 10 10 10 10 10 10 10 10 10 9 10 9 9 9 8 9 9 8 8 8 8 8 7 7 7
6 5 5 5 5 6 6 7 7 8 8 10 11 10 11 11 12 12 12 12 12 11 10 10 10 10 9 10 10 10 10 10 9 9 9 9 8 8
6 5 5 5 6 6 7 7 8 8 9 10 11 11 11 12 12 14 15 14 14 13 13 12 11 10 10 11 11 11 11 11 10 10 10 10 10 10
7 6 5 7 8 7 7 8 8 9 10 11 12 12 14 14 14 14 15 15 15 15 16 16 14 14 13 11 11 11 11 11 11 11 11 11 11 12
8 8 8 10 9 9 8 8 7 9 10 11 12 13 13 13 14 15 16 17 18 17 17 17 16 16 14 13 11 11 12 12 12 12 12 12 12 13
7 8 9 9 9 8 9 9 10 9 9 9 11 11 13 13 14 15 15 15 16 16 15 18 17 17 15 13 12 12 12 12 13 12 12 13 14 14
7 8 8 8 8 9 9 9 9 9 9 9 9 10 11 12 13 13 14 16 15 14 14 18 19 19 16 16 12 12 12 13 13 13 14 14 15 15
8 8 8 9 11 10 10 11 12 12 10 9 9 10 10 11 12 14 15 15 16 15 14 16 18 20 18 18 16 13 12 12 14 14 15 15 16 17
10 10 12 9 11 10 11 12 13 13 12 13 11 11 11 11 11 10 12 13 14 16 14 19 20 20 23 21 21 19 17 15 14 14 15 16 17 19
12 12 13 11 11 10 10 11 11 12 11 12 13 13 12 12 11 12 11 12 13 14 16 18 20 22 24 22 23 22 21 20 19 18 15 15 15 18
12 13 12 11 11 10 12 11 11 12 13 13 12 13 14 14 12 12 14 15 15 14 15 17 20 21 24 26 26 25 26 25 22 22 21 18 17 16
13 12 11 11 11 11 11 11 13 13 13 14 14 13 11 13 16 15 16 17 17 18 16 16 18 22 24 26 27 27 27 28 26 25 25 23 23 22
13 13 12 12 11 12 13 13 13 13 13 13 14 17 16 14 14 15 16 15 17 18 20 18 18 22 28 30 28 30 29 27 29 27 25 24 25 24
13 14 14 14 14 14 14 14 14 14 13 14 15 16 16 16 16 15 14 15 16 18 20 22 23 23 24 27 30 31 30 29 27 28 27 28 26 26
13 14 14 14 13 14 14 14 14 14 13 14 14 15 16 16 17 17 17 16 16 17 20 21 22 21 24 27 25 30 33 30 31 29 28 29 28 25
13 13 13 14 13 13 13 14 14 14 13 14 14 14 15 15 16 17 17 17 18 19 19 20 20 21 28 25 30 22 29 31 29 30 30 29 27 26
13 13 13 13 13 13 13 13 14 14 14 14 14 14 14 15 16 17 17 17 18 22 23 22 19 20 21 24 27 29 21 27 25 25 28 28 27 22
13 13 13 13 13 13 13 13 13 14 14 14 14 14 14 15 16 16 17 17 18 20 21 20 19 22 27 26 27 27 25 20 22 24 26 26 27 28
13 13 13 12 13 13 12 13 13 13 14 14 14 14 15 15 15 16 17 19 20 19 18 23 25 23 26 23 24 26 26 25 20 19 20 21 24 26
13 13 13 13 13 13 13 12 12 13 13 14 14 14 16 16 16 17 17 18 19 20 25 27 27 24 26 24 24 25 26 25 25 25 25 20 20 20

GFSNE_con_lsi_339.txt.gz
Lid_Strength_Index
4 4 4 3 3 3 4 5 7 9 11 11 10 8 7 7 8 6 6 7 5 5 5 5 6 6 4 3 4 4 4 5 5 5 4 5 5 5
4 4 4 3 4 4 4 4 5 7 11 10 10 9 8 8 8 8 8 8 8 7 7 7 7 7 5 5 6 5 5 5 5 5 5 5 5 5
4 4 4 4 5 5 5 6 5 7 11 11 9 9 9 9 9 9 9 9 9 9 8 8 8 8 6 7 7 6 6 6 6 6 6 6 6 6
4 4 4 4 5 5 6 7 7 7 9 11 10 10 10 10 10 11 10 10 9 9 9 9 9 9 8 9 8 8 8 8 8 8 7 7 7 7
5 4 5 5 5 5 6 7 7 8 8 10 11 11 11 11 12 12 12 12 12 10 9 10 11 11 10 10 10 10 10 10 9 9 9 8 8 8
6 4 4 4 5 6 7 7 7 8 9 10 11 12 12 12 12 14 15 14 14 13 12 11 12 11 11 12 11 11 11 10 10 10 10 10 9 10
6 6 5 7 8 6 6 7 7 8 9 10 11 12 13 13 14 14 15 15 15 14 14 14 13 12 12 11 12 11 11 11 11 11 11 11 11 11
7 7 7 10 8 8 8 8 7 9 10 10 11 12 13 13 14 14 15 16 17 14 15 16 14 14 13 12 11 12 12 12 12 12 12 12 12 12
7 7 8 9 9 6 9 9 9 9 8 8 11 11 13 13 14 15 15 15 16 16 16 17 15 14 13 12 12 12 12 12 12 12 12 13 13 13
7 7 8 9 8 7 7 8 8 9 8 8 9 10 10 12 13 13 14 16 16 16 15 17 15 15 14 13 12 13 13 13 13 13 14 14 14 14
8 7 7 8 10 10 9 10 11 11 9 9 9 9 10 11 12 14 15 16 18 17 15 15 15 16 15 15 15 13 13 13 14 14 15 15 16 16
10 9 13 8 11 10 9 11 12 12 12 12 11 11 11 11 12 12 14 15 15 15 14 16 16 16 17 17 17 17 16 14 14 15 15 16 17 17
12 12 12 10 10 10 10 10 10 12 11 13 13 13 13 12 12 11 11 11 13 13 14 15 16 18 18 18 19 18 18 17 17 17 15 15 17 17
12 12 12 11 10 10 11 10 11 11 11 12 12 13 13 13 13 12 12 13 13 12 14 15 16 17 19 20 20 21 20 20 19 18 18 17 17 17
13 12 11 11 11 10 11 11 13 12 13 13 13 12 11 11 14 16 15 15 16 14 13 15 16 18 18 19 21 22 21 21 20 20 20 20 19 19
12 12 12 12 11 12 13 12 13 12 12 12 13 13 15 15 13 14 15 14 15 17 18 16 16 18 21 20 21 22 21 22 22 21 21 21 21 20
13 13 14 14 14 14 14 14 14 13 13 13 14 15 14 14 15 15 13 13 14 16 18 20 20 19 19 22 22 21 22 23 22 22 22 22 21 21
13 13 14 14 13 13 13 14 14 14 13 13 14 14 14 14 15 15 14 15 15 16 18 19 20 19 19 20 20 23 22 22 22 23 22 22 22 21
13 13 13 13 13 13 13 13 13 13 13 13 13 14 14 14 15 15 15 14 15 16 17 20 20 18 19 18 21 20 21 22 23 24 22 22 22 21
13 13 13 13 13 13 13 13 13 14 14 13 13 13 14 14 15 15 15 14 14 17 19 19 18 17 15 16 17 20 18 22 21 22 24 24 23 22
13 13 13 13 13 13 13 13 13 13 13 14 14 14 14 14 14 14 15 14 15 17 18 19 18 16 22 21 21 22 20 18 19 21 23 23 23 23
12 12 13 13 13 13 13 13 13 13 13 13 13 13 13 13 13 14 14 15 16 16 15 18 22 22 22 19 20 24 23 22 18 19 19 20 21 23
11 11 12 12 13 13 13 13 13 13 13 13 13 13 13 14 13 13 14 15 15 16 20 24 23 21 21 20 22 23 25 24 21 20 20 18 19 20

GFSNE_con_lsi_342.txt.gz
Lid_Strength_Index
2 1 2 2 2 2 3 3 5 9 11 10 10 8 7 6 7 5 6 7 6 5 5 5 5 5 5 3 4 4 4 4 5 5 5 5 5 5
2 2 1 2 2 3 3 3 5 6 11 10 10 8 8 9 9 8 8 8 8 7 6 6 6 6 6 4 5 5 5 5 5 6 6 6 5 5
2 2 2 2 4 4 3 3 5 6 11 10 9 9 9 9 8 7 7 7 8 8 7 7 7 7 7 6 6 6 6 6 7 7 6 6 6 6
3 2 3 4 5 5 5 4 5 7 9 11 10 11 10 10 10 10 9 9 9 9 8 8 9 9 9 7 8 8 8 8 8 8 7 7 7 7
4 2 4 4 5 6 6 5 5 7 8 10 11 10 11 11 12 12 12 12 11 10 10 10 10 10 10 10 9 10 10 10 10 9 9 9 8 8
4 4 3 4 4 5 6 6 6 8 9 10 11 12 12 12 12 13 14 13 13 12 11 11 11 11 12 11 11 11 11 10 10 10 10 10 10 9
4 4 5 6 8 6 5 6 6 8 9 10 11 12 13 14 14 13 14 14 14 13 13 12 12 12 12 12 12 12 11 11 11 11 11 11 11 11
5 5 5 10 8 8 8 7 6 6 8 9 10 11 12 12 13 14 14 15 15 13 14 14 12 13 12 11 12 12 11 11 12 12 12 12 12 12
5 5 7 7 9 6 8 8 9 8 8 7 9 10 12 12 13 14 14 14 15 14 14 15 13 14 13 13 13 12 12 12 12 12 12 13 13 14
5 5 6 6 6 7 7 7 7 8 8 7 7 9 10 11 12 12 14 15 15 15 14 16 15 15 13 12 12 12 12 13 13 13 13 14 15 15
6 5 6 8 10 9 8 9 10 10 9 9 9 9 10 11 11 14 15 16 17 16 15 15 15 15 14 13 13 13 13 13 14 14 14 15 16 16
8 7 12 7 11 10 8 10 11 11 11 12 11 11 11 11 12 12 14 14 16 17 15 15 15 14 15 14 14 15 14 14 14 14 15 16 17 16
11 12 11 10 10 10 9 10 10 12 11 12 13 12 12 12 13 12 13 12 14 14 14 13 14 14 14 16 15 15 15 15 15 15 15 16 16 17
11 11 11 11 10 10 10 10 11 12 12 13 13 14 14 13 13 12 12 12 12 12 13 12 13 14 15 17 17 16 16 16 16 16 16 16 17 17
12 11 11 11 11 10 10 11 13 12 12 12 12 12 13 12 13 14 15 14 14 13 12 13 13 13 14 15 16 18 18 18 17 16 17 17 17 17
12 12 11 11 11 12 13 12 13 12 12 11 12 12 13 13 13 13 15 16 14 16 16 14 13 14 15 14 15 18 17 19 18 17 17 18 19 19
13 14 14 14 13 14 14 13 14 13 13 13 13 14 14 14 14 14 13 13 13 16 17 17 17 16 16 18 18 17 18 19 19 18 18 19 19 18
13 13 13 13 13 13 13 14 14 14 13 13 13 13 14 14 14 14 14 14 14 15 15 17 18 18 17 17 16 16 17 18 18 18 18 19 19 19
12 13 13 13 13 13 13 13 13 13 13 13 13 13 13 14 14 14 14 14 14 14 16 18 19 17 17 16 18 18 18 18 18 19 18 18 18 18
12 12 12 13 13 13 13 13 13 13 13 13 13 13 13 14 14 14 14 14 14 14 16 18 17 16 14 13 15 18 17 18 19 18 19 18 19 21
12 12 12 13 13 13 13 13 13 13 13 13 13 13 13 13 14 14 14 14 14 14 16 17 16 14 16 18 18 21 20 18 18 18 19 21 21 20
11 12 12 12 13 13 13 13 13 13 13 13 13 13 13 13 13 13 14 14 14 13 14 14 16 19 18 16 15 20 21 20 19 18 18 19 20 21
11 11 12 12 12 11 12 12 13 13 13 13 13 13 13 14 13 13 13 13 13 14 15 20 19 18 18 17 16 20 21 22 21 21 20 18 19 21

GFSNE_con_lsi_345.txt.gz
Lid_Strength_Index
1 1 2 2 2 4 4 4 6 9 11 10 10 8 7 6 7 6 6 7 5 5 5 4 4 4 4 5 4 4 4 4 5 5 5 5 5 5
2 2 2 2 2 2 3 3 4 7 12 10 10 9 8 9 9 8 8 9 7 6 5 5 5 5 5 5 4 4 5 5 5 5 6 6 6 6
3 2 2 3 4 3 3 4 5 7 11 10 9 9 9 9 9 8 8 8 8 8 7 7 6 6 6 6 5 6 6 6 6 6 6 6 7 6
3 3 3 4 4 4 3 5 6 7 9 11 11 11 11 10 10 10 10 9 9 8 8 8 8 8 8 8 8 7 8 8 7 7 7 7 7 7
3 3 4 4 5 5 4 5 6 7 8 10 12 11 12 11 12 11 11 11 10 10 9 9 9 9 10 9 10 9 9 10 9 9 9 9 8 8
3 3 4 5 5 5 5 5 6 7 9 10 12 12 12 12 12 13 14 13 13 12 11 11 11 10 10 10 11 11 10 10 10 10 10 10 10 10
4 3 3 6 9 7 5 5 6 8 9 11 12 12 13 14 14 14 14 14 14 13 13 13 13 13 12 12 13 12 11 11 11 11 11 11 11 11
5 4 5 11 9 9 8 7 6 8 9 10 11 12 12 12 13 14 14 15 15 13 13 14 13 13 13 13 12 11 11 12 11 11 11 12 12 13
4 5 7 7 9 7 9 9 8 8 7 8 9 10 12 12 13 14 14 13 14 14 13 15 13 14 14 13 12 12 12 13 12 12 12 13 13 14
4 5 6 7 7 8 8 8 7 6 7 6 7 8 10 11 12 12 13 15 15 15 14 15 14 15 14 15 13 12 13 13 12 12 13 13 14 15
4 5 6 7 9 10 8 9 10 10 8 8 8 9 9 10 11 13 15 15 17 16 15 15 15 16 15 14 14 12 12 12 13 13 13 14 15 16
6 6 12 7 10 10 8 11 12 11 11 11 11 10 10 11 12 11 13 14 15 16 15 15 16 16 18 15 16 15 14 13 13 13 14 14 15 18
10 11 11 10 10 10 9 10 10 12 11 12 12 12 13 12 13 12 12 12 14 14 15 14 15 16 16 17 16 16 16 16 15 15 14 14 15 16
10 11 11 10 10 9 10 10 11 12 12 13 13 13 13 13 13 13 13 14 14 13 14 13 14 14 15 18 18 17 18 17 16 16 17 15 15 15
11 10 10 10 10 10 10 11 13 12 12 13 13 13 13 13 13 13 14 14 15 13 12 12 13 13 13 15 17 18 18 17 16 18 19 19 19 19
11 12 11 11 11 11 13 12 12 12 12 12 12 12 13 13 13 13 14 15 15 17 14 13 12 12 14 13 15 17 18 20 18 18 19 20 20 20
12 13 13 13 13 13 13 13 13 13 13 13 13 13 13 13 13 13 13 13 14 16 18 16 15 14 14 15 16 16 17 20 19 19 20 20 21 20
12 13 13 13 13 13 13 13 13 13 13 13 13 13 13 14 14 14 14 14 14 14 14 16 17 17 17 16 14 15 16 16 18 19 21 21 21 19
12 12 12 13 13 13 13 13 13 13 12 13 13 13 13 13 14 14 14 14 14 14 15 17 18 17 18 18 19 15 17 18 19 20 21 21 24 21
12 12 12 12 13 13 13 13 13 13 13 13 13 13 13 13 14 14 14 14 14 14 15 17 17 16 15 15 15 18 15 18 19 20 21 22 23 20
11 11 11 12 12 12 12 13 13 13 13 13 13 13 13 13 13 13 13 14 14 13 14 16 15 14 15 16 17 20 20 16 16 18 20 22 26 25
11 11 11 11 11 12 12 13 13 13 13 13 13 13 13 13 13 13 13 13 14 13 13 13 15 15 16 15 14 16 20 20 17 16 16 19 22 24
11 11 11 11 11 12 12 12 13 13 13 12 13 13 13 13 13 13 13 13 13 14 13 15 16 16 16 16 15 16 20 21 21 21 20 17 18 20